Regional Weather Roundup
Issued by NWS

Home | Current Version | Previous Version | Graphics & Text | Print | Product List | Glossary On
Versions: 1 2 3 4 5 6 7 8 9 10 11 12 13 14 15 16 17 18 19 20 21 22 23 24 25 26 27
000
ASUS45 KCYS 260910
RWRWY

WYOMING REGIONAL WEATHER ROUNDUP
NATIONAL WEATHER SERVICE CHEYENNE WY
300 AM MDT TUE JUL 26 2016

NOTE:  "FAIR" INDICATES FEW OR NO CLOUDS BELOW 12,000 FEET
WITH NO SIGNIFICANT WEATHER AND/OR OBSTRUCTIONS TO VISIBILITY.

WYZ001-261000-
YELLOWSTONE NATIONAL PARK

CITY           SKY/WX    TMP DP  RH WIND       PRES   REMARKS
LK YELLOWSTONE   N/A     44  34  67 NW3       30.35S
W YELLOWSTONE  NOT AVBL

$$
WYZ002>013-054>058-071-098>099-261000-
NORTHERN WYOMING

CITY           SKY/WX    TMP DP  RH WIND       PRES   REMARKS
JACKSON        FAIR      46  30  53 N5        30.24S
CODY           FAIR      68  39  34 NW9       30.19S
GREYBULL       FAIR      78  42  27 N16G24    29.99R
WORLAND        FAIR      73  43  33 NW9       30.04R
SHERIDAN       FAIR      74  46  36 NW33G41   30.07R
BUFFALO        FAIR      74  41  30 NW24G36   30.10S
GILLETTE       LGT RAIN  72  60  66 SE12      30.02S
HULETT         FAIR      79  59  50 S6        30.04S
NEWCASTLE      FAIR      73  55  53 E12       30.06F

$$
WYZ014>020-022>026-101>103-261000-
CENTRAL WYOMING

CITY           SKY/WX    TMP DP  RH WIND       PRES   REMARKS
BIG PINEY      FAIR      51  28  41 VRB6      30.29R
PINEDALE       FAIR      46  32  57 NW5       30.30S
DUBOIS         FAIR      54  23  30 W10       30.28F HAZE
LANDER         FAIR      72  29  20 SW8       30.11F
RIVERTON       FAIR      69  33  26 N17G24    30.14R
CASPER         FAIR      57  44  62 MISG      30.09S
DOUGLAS          N/A    N/A N/A N/A MISG      30.07F

$$
WYZ021-027>030-104>119-261000-
SOUTHERN WYOMING

CITY           SKY/WX    TMP DP  RH WIND       PRES   REMARKS
EVANSTON       FAIR      66  33  29 SE5       30.29F
KEMMERER         N/A     52  32  46 N9        30.30F
FORT BRIDGER   FAIR      69  32  25 SW14      30.30S
ROCK SPRINGS   FAIR      68  30  24 CALM      30.25S
DIXON          FAIR      59  37  44 NE3       30.28S
RAWLINS        FAIR      66  29  24 SW8       30.24F
SARATOGA       FAIR      54  34  47 SE7       30.29R
LARAMIE        FAIR      54  42  64 S5        30.28S
CHEYENNE       FAIR      60  53  77 W6        30.19F
TORRINGTON     FAIR      64  62  93 E8        30.05F
PINE BLUFFS    FAIR      61  57  88 SW5       30.15R

$$




USA.gov is the U.S. government's official web portal to all federal, state and local government web resources and services.